timestamp,wind_dir_avg,wind_spd_max_dir,wind_spd_avg,wind_spd_gust,battery_voltage,lat,long
2017-11-03 00:00:00+00:00,181.0,187.0,0.61,0.81,,47.59359,-54.27349
2017-11-03 00:10:00+00:00,213.0,213.0,0.95,1.1,,47.59359,-54.27349
2017-11-03 00:20:00+00:00,261.0,266.0,1.42,1.63,,47.59359,-54.27349
2017-11-03 00:30:00+00:00,239.0,240.0,1.04,1.22,,47.59359,-54.27349
2017-11-03 00:40:00+00:00,239.0,235.0,0.65,0.89,,47.59359,-54.27349
2017-11-03 00:50:00+00:00,115.0,121.0,0.43,0.62,,47.59359,-54.27349
2017-11-03 01:00:00+00:00,56.0,56.0,0.85,1.0,,47.59359,-54.27349
2017-11-03 01:10:00+00:00,68.0,80.0,1.01,1.34,,47.59359,-54.27349
2017-11-03 01:20:00+00:00,126.0,130.0,0.7,0.88,,47.59359,-54.27349
2017-11-03 01:30:00+00:00,99.0,100.0,0.97,1.13,,47.59359,-54.27349
2017-11-03 01:40:00+00:00,116.0,117.0,2.32,4.19,,47.59359,-54.27349
2017-11-03 01:50:00+00:00,129.0,130.0,2.8,3.85,,47.59359,-54.27349
2017-11-03 02:00:00+00:00,136.0,128.0,2.85,3.33,,47.59359,-54.27349
2017-11-03 02:10:00+00:00,135.0,130.0,2.45,2.77,,47.59359,-54.27349
2017-11-03 02:20:00+00:00,123.0,126.0,1.66,2.24,,47.59359,-54.27349
2017-11-03 02:30:00+00:00,137.0,134.0,2.75,3.19,,47.59359,-54.27349
2017-11-03 02:40:00+00:00,154.0,152.0,3.11,3.34,,47.59359,-54.27349
2017-11-03 02:50:00+00:00,166.0,166.0,2.51,2.84,,47.59359,-54.27349
2017-11-03 03:00:00+00:00,159.0,162.0,3.01,3.3,,47.59359,-54.27349
2017-11-03 03:10:00+00:00,160.0,161.0,3.42,3.98,,47.59359,-54.27349
2017-11-03 03:20:00+00:00,170.0,173.0,3.08,3.66,,47.59359,-54.27349
2017-11-03 03:30:00+00:00,159.0,160.0,3.56,3.99,,47.59359,-54.27349
2017-11-03 03:40:00+00:00,148.0,151.0,2.55,2.88,,47.59359,-54.27349
2017-11-03 03:50:00+00:00,130.0,120.0,2.11,3.06,,47.59359,-54.27349
2017-11-03 04:00:00+00:00,135.0,137.0,2.72,3.28,,47.59359,-54.27349
2017-11-03 04:10:00+00:00,149.0,157.0,1.96,2.35,,47.59359,-54.27349
2017-11-03 04:20:00+00:00,155.0,160.0,2.28,2.55,,47.59359,-54.27349
2017-11-03 04:30:00+00:00,159.0,165.0,2.91,3.41,,47.59359,-54.27349
2017-11-03 04:40:00+00:00,162.0,157.0,4.73,5.19,,47.59359,-54.27349
2017-11-03 04:50:00+00:00,163.0,163.0,5.04,5.61,,47.59359,-54.27349
2017-11-03 05:00:00+00:00,172.0,172.0,5.4,5.89,,47.59359,-54.27349
2017-11-03 05:10:00+00:00,168.0,172.0,5.65,6.2,,47.59359,-54.27349
2017-11-03 05:20:00+00:00,172.0,171.0,4.96,5.69,,47.59359,-54.27349
2017-11-03 05:30:00+00:00,169.0,171.0,5.4,6.08,,47.59359,-54.27349
2017-11-03 05:40:00+00:00,159.0,158.0,5.89,6.42,,47.59359,-54.27349
2017-11-03 05:50:00+00:00,157.0,154.0,5.0,5.45,,47.59359,-54.27349
2017-11-03 06:00:00+00:00,156.0,155.0,5.63,6.38,,47.59359,-54.27349
2017-11-03 06:10:00+00:00,153.0,158.0,4.39,4.95,,47.59359,-54.27349
2017-11-03 06:20:00+00:00,161.0,166.0,3.91,4.53,,47.59359,-54.27349
2017-11-03 06:30:00+00:00,155.0,151.0,4.24,4.77,,47.59359,-54.27349
2017-11-03 06:40:00+00:00,148.0,150.0,3.4,3.93,,47.59359,-54.27349
2017-11-03 06:50:00+00:00,169.0,167.0,4.99,5.72,,47.59359,-54.27349
2017-11-03 07:00:00+00:00,174.0,179.0,5.69,6.72,,47.59359,-54.27349
2017-11-03 07:10:00+00:00,177.0,179.0,5.9,6.64,,47.59359,-54.27349
2017-11-03 07:20:00+00:00,173.0,173.0,5.67,6.33,,47.59359,-54.27349
2017-11-03 07:30:00+00:00,189.0,189.0,5.65,6.59,,47.59359,-54.27349
2017-11-03 07:40:00+00:00,192.0,189.0,4.6,5.98,,47.59359,-54.27349
2017-11-03 07:50:00+00:00,198.0,196.0,4.99,5.66,,47.59359,-54.27349
2017-11-03 08:00:00+00:00,204.0,209.0,5.04,5.74,,47.59359,-54.27349
2017-11-03 08:10:00+00:00,197.0,202.0,5.12,5.94,,47.59359,-54.27349
2017-11-03 08:20:00+00:00,198.0,196.0,4.86,5.35,,47.59359,-54.27349
2017-11-03 08:30:00+00:00,199.0,195.0,4.17,4.72,,47.59359,-54.27349
2017-11-03 08:40:00+00:00,195.0,193.0,5.09,6.39,,47.59359,-54.27349
2017-11-03 08:50:00+00:00,187.0,192.0,6.02,7.08,,47.59359,-54.27349
2017-11-03 09:00:00+00:00,194.0,191.0,6.01,7.38,,47.59359,-54.27349
2017-11-03 09:10:00+00:00,179.0,178.0,6.71,7.89,,47.59359,-54.27349
2017-11-03 09:20:00+00:00,180.0,182.0,7.1,7.88,,47.59359,-54.27349
2017-11-03 09:30:00+00:00,183.0,180.0,5.83,6.53,,47.59359,-54.27349
2017-11-03 09:40:00+00:00,181.0,175.0,5.4,6.06,,47.59359,-54.27349
2017-11-03 09:50:00+00:00,185.0,180.0,6.08,6.8,,47.59359,-54.27349
2017-11-03 10:00:00+00:00,191.0,193.0,7.49,8.16,,47.59359,-54.27349
2017-11-03 10:10:00+00:00,198.0,191.0,6.97,7.69,,47.59359,-54.27349
2017-11-03 10:20:00+00:00,197.0,196.0,5.8,6.65,,47.59359,-54.27349
2017-11-03 10:30:00+00:00,177.0,181.0,7.33,8.17,,47.59359,-54.27349
2017-11-03 10:40:00+00:00,195.0,200.0,6.61,7.27,,47.59359,-54.27349
2017-11-03 10:50:00+00:00,202.0,197.0,5.61,6.51,,47.59359,-54.27349
2017-11-03 11:00:00+00:00,194.0,194.0,6.52,7.15,,47.59359,-54.27349
2017-11-03 11:10:00+00:00,188.0,186.0,7.06,7.6,,47.59359,-54.27349
2017-11-03 11:20:00+00:00,187.0,187.0,7.53,8.45,,47.59359,-54.27349
2017-11-03 11:30:00+00:00,190.0,184.0,7.02,7.98,,47.59359,-54.27349
2017-11-03 11:40:00+00:00,189.0,191.0,7.72,8.83,,47.59359,-54.27349
2017-11-03 11:50:00+00:00,186.0,187.0,6.68,7.36,,47.59359,-54.27349
2017-11-03 12:00:00+00:00,198.0,198.0,6.82,7.49,,47.59359,-54.27349
2017-11-03 12:10:00+00:00,200.0,198.0,6.16,6.82,,47.59359,-54.27349
2017-11-03 12:20:00+00:00,204.0,209.0,5.77,6.39,,47.59359,-54.27349
2017-11-03 12:30:00+00:00,206.0,211.0,5.81,6.85,,47.59359,-54.27349
2017-11-03 12:40:00+00:00,211.0,214.0,7.9,8.42,,47.59359,-54.27349
2017-11-03 12:50:00+00:00,204.0,197.0,7.28,8.27,,47.59359,-54.27349
2017-11-03 13:00:00+00:00,195.0,192.0,5.5,6.68,,47.59359,-54.27349
2017-11-03 13:10:00+00:00,208.0,208.0,6.21,7.04,,47.59359,-54.27349
2017-11-03 13:20:00+00:00,207.0,208.0,7.41,8.42,,47.59359,-54.27349
2017-11-03 13:30:00+00:00,211.0,214.0,8.15,9.26,,47.59359,-54.27349
2017-11-03 13:40:00+00:00,211.0,208.0,7.94,8.89,,47.59359,-54.27349
2017-11-03 13:50:00+00:00,217.0,215.0,8.42,9.47,,47.59359,-54.27349
2017-11-03 14:00:00+00:00,225.0,229.0,7.79,9.31,,47.59359,-54.27349
2017-11-03 14:10:00+00:00,229.0,230.0,8.02,9.08,,47.59359,-54.27349
2017-11-03 14:20:00+00:00,219.0,217.0,7.13,8.17,,47.59359,-54.27349
2017-11-03 14:30:00+00:00,213.0,211.0,8.07,9.27,,47.59359,-54.27349
2017-11-03 14:40:00+00:00,215.0,220.0,8.42,9.35,,47.59359,-54.27349
2017-11-03 14:50:00+00:00,218.0,220.0,9.42,10.08,,47.59359,-54.27349
2017-11-03 15:00:00+00:00,208.0,205.0,8.95,10.17,,47.59359,-54.27349
2017-11-03 15:10:00+00:00,213.0,214.0,8.26,9.02,,47.59359,-54.27349
2017-11-03 15:20:00+00:00,212.0,214.0,9.57,10.68,,47.59359,-54.27349
2017-11-03 15:30:00+00:00,210.0,205.0,10.1,11.77,,47.59359,-54.27349
2017-11-03 15:40:00+00:00,214.0,213.0,10.18,11.19,,47.59359,-54.27349
2017-11-03 15:50:00+00:00,213.0,216.0,10.58,11.77,,47.59359,-54.27349
2017-11-03 16:00:00+00:00,216.0,217.0,10.85,11.84,,47.59359,-54.27349
2017-11-03 16:10:00+00:00,217.0,217.0,9.25,10.35,,47.59359,-54.27349
2017-11-03 16:20:00+00:00,220.0,219.0,10.9,11.85,,47.59359,-54.27349
2017-11-03 16:30:00+00:00,220.0,219.0,10.21,11.24,,47.59359,-54.27349
2017-11-03 16:40:00+00:00,221.0,219.0,9.51,10.57,,47.59359,-54.27349
2017-11-03 16:50:00+00:00,222.0,221.0,9.17,10.27,,47.59359,-54.27349
2017-11-03 17:00:00+00:00,216.0,217.0,9.34,9.88,,47.59359,-54.27349
2017-11-03 17:10:00+00:00,224.0,221.0,7.8,9.08,,47.59359,-54.27349
2017-11-03 17:20:00+00:00,224.0,219.0,8.19,9.22,,47.59359,-54.27349
2017-11-03 17:30:00+00:00,229.0,232.0,8.72,10.09,,47.59359,-54.27349
2017-11-03 17:40:00+00:00,228.0,232.0,8.84,9.85,,47.59359,-54.27349
2017-11-03 17:50:00+00:00,221.0,230.0,10.17,11.42,,47.59359,-54.27349
2017-11-03 18:00:00+00:00,218.0,221.0,9.93,10.84,,47.59359,-54.27349
2017-11-03 18:10:00+00:00,217.0,221.0,9.92,10.9,,47.59359,-54.27349
2017-11-03 18:20:00+00:00,218.0,224.0,9.99,11.32,,47.59359,-54.27349
2017-11-03 18:30:00+00:00,219.0,217.0,9.85,11.01,,47.59359,-54.27349
2017-11-03 18:40:00+00:00,218.0,216.0,9.53,10.9,,47.59359,-54.27349
2017-11-03 18:50:00+00:00,219.0,217.0,8.82,10.16,,47.59359,-54.27349
2017-11-03 19:00:00+00:00,215.0,213.0,9.41,10.56,,47.59359,-54.27349
2017-11-03 19:10:00+00:00,213.0,216.0,10.52,11.93,,47.59359,-54.27349
2017-11-03 19:20:00+00:00,210.0,210.0,10.68,12.23,,47.59359,-54.27349
2017-11-03 19:30:00+00:00,211.0,209.0,10.63,11.62,,47.59359,-54.27349
2017-11-03 19:40:00+00:00,210.0,209.0,10.51,11.67,,47.59359,-54.27349
2017-11-03 19:50:00+00:00,214.0,219.0,10.84,13.39,,47.59359,-54.27349
2017-11-03 20:00:00+00:00,212.0,209.0,11.31,12.54,,47.59359,-54.27349
2017-11-03 20:10:00+00:00,212.0,216.0,11.33,13.41,,47.59359,-54.27349
2017-11-03 20:20:00+00:00,212.0,213.0,11.73,13.65,,47.59359,-54.27349
2017-11-03 20:30:00+00:00,212.0,211.0,10.02,12.57,,47.59359,-54.27349
2017-11-03 20:40:00+00:00,214.0,220.0,10.06,11.18,,47.59359,-54.27349
2017-11-03 20:50:00+00:00,216.0,218.0,11.06,11.81,,47.59359,-54.27349
2017-11-03 21:00:00+00:00,216.0,217.0,10.24,11.69,,47.59359,-54.27349
2017-11-03 21:10:00+00:00,214.0,206.0,11.48,13.68,,47.59359,-54.27349
2017-11-03 21:20:00+00:00,215.0,218.0,11.83,13.9,,47.59359,-54.27349
2017-11-03 21:30:00+00:00,224.0,227.0,13.59,14.8,,47.59359,-54.27349
2017-11-03 21:40:00+00:00,217.0,216.0,12.89,15.37,,47.59359,-54.27349
2017-11-03 21:50:00+00:00,221.0,222.0,11.54,13.04,,47.59359,-54.27349
2017-11-03 22:00:00+00:00,222.0,225.0,10.24,12.74,,47.59359,-54.27349
2017-11-03 22:10:00+00:00,217.0,214.0,10.78,11.67,,47.59359,-54.27349
2017-11-03 22:20:00+00:00,225.0,225.0,11.04,11.93,,47.59359,-54.27349
2017-11-03 22:30:00+00:00,222.0,220.0,9.65,11.12,,47.59359,-54.27349
2017-11-03 22:40:00+00:00,223.0,217.0,11.15,12.61,,47.59359,-54.27349
2017-11-03 22:50:00+00:00,228.0,229.0,10.47,12.09,,47.59359,-54.27349
2017-11-03 23:00:00+00:00,230.0,234.0,10.38,11.94,,47.59359,-54.27349
2017-11-03 23:10:00+00:00,227.0,229.0,10.44,11.59,,47.59359,-54.27349
2017-11-03 23:20:00+00:00,234.0,237.0,9.55,10.57,,47.59359,-54.27349
2017-11-03 23:30:00+00:00,229.0,234.0,11.2,13.91,,47.59359,-54.27349
2017-11-03 23:40:00+00:00,227.0,231.0,10.62,12.7,,47.59359,-54.27349
2017-11-03 23:50:00+00:00,216.0,215.0,11.08,12.52,,47.59359,-54.27349
